[[{"header":{"parameterUnit":"m.s-1","parameterCategory":2,"la1":30.2991,"la2":30.254,"lo1":-89.0895,"lo2":-89.0444,"dy":0.0017,"dx":0.0017,"nx":28,"ny":28,"refTime":"2025-09-14T09:00:00:Z","depth":"0","parameterNumber":2,"parameterNumberName":"U-component_of_CURRENTS"},"data":[0,0,0,0,0,0,0,0,0,0,0,0,0,0,0,0,0,0,0,0,0,0,0,0,0,0,0,0,0,0,0,0,0,0,0,0,0,0,0,0,0,0,0,0,0,0,0,0,0,0,0,0,0,0,0,0,0,0,0.1982,0.1983,0,0.203,0.2031,0.2031,0.2037,0.2036,0.2036,0.2036,0.2038,0.2038,0.2038,0,0,0,0,0,0,0,0,0,0,0,0,0,0.1905,0.1906,0.1982,0.1983,0.1984,0.203,0.2031,0.2031,0.2037,0.2036,0.2036,0.2036,0.2038,0.2038,0.2038,0,0,0,0,0,0,0,0,0,0,0,0,0,0.1941,0.1906,0.1982,0.1994,0.1996,0.203,0.2031,0.2031,0.2037,0.2036,0.2036,0.2036,0.2037,0.2038,0.2038,0.2046,0,0,0.2039,0.2039,0,0,0,0,0,0,0,0,0.1939,0.1944,0.1992,0.1994,0.1996,0.203,0.2004,0.2035,0.2037,0.2018,0.2036,0.2036,0.2033,0.2034,0.2039,0.2046,0.2046,0.2039,0.2039,0.2039,0.2039,0,0,0,0,0,0,0,0.1936,0.1942,0.1998,0.1993,0.1995,0.2002,0.2006,0.201,0.2023,0.202,0.2021,0.2032,0.2033,0.2039,0.2039,0.2046,0.2039,0.2039,0.204,0.204,0.213,0.2132,0,0,0,0,0,0,0.1937,0.1939,0.1996,0.2,0.197,0.2003,0.2008,0.2017,0.2024,0.2026,0.2032,0.2032,0.2039,0.2039,0.2039,0.2148,0.2039,0.204,0.204,0.2128,0.213,0.2133,0,0,0,0,0,0,0.1935,0.1941,0.1994,0.1973,0.1981,0.2005,0.2015,0.2018,0.203,0.2034,0.2035,0.2042,0.2039,0.2039,0.2058,0.2144,0.204,0.204,0.2125,0.2129,0.2132,0.2301,0,0,0,0,0,0,0.1933,0.194,0.1943,0.1973,0.1982,0.2033,0.2015,0.2019,0.2039,0.2039,0.2043,0.2043,0.2038,0.2058,0.2059,0.2142,0.204,0.2122,0.2127,0.2131,0.2292,0.2309,0.2324,0,0,0,0,0,0.193,0.1951,0.1943,0.195,0.1986,0.2035,0.204,0.2054,0.2039,0.206,0.2058,0.2043,0.2085,0.2059,0.206,0.2146,0.212,0.2125,0.213,0.2285,0.2306,0.2324,0,0,0,0,0,0,0.1922,0.1954,0.1946,0.1975,0.2005,0.2037,0.2062,0.2059,0.2073,0.2071,0.2058,0.2059,0.2111,0.2091,0.2063,0.2181,0.2106,0.2111,0.2224,0.2243,0.2259,0.2229,0.2041,0,0,0,0,0,0.1919,0.1946,0.1971,0.1999,0.2014,0.2033,0.205,0.2061,0.2079,0.2085,0.2089,0.2099,0.2131,0.2154,0.2161,0.222,0.2249,0.2276,0.2292,0.2306,0.2281,0.2372,0.2394,0.2149,0.2149,0.2149,0,0,0.1928,0.1948,0.1964,0.1999,0.2023,0.208,0.2043,0.2086,0.2134,0.2083,0.2142,0.2142,0.2151,0.2225,0.2249,0.2224,0.2417,0.2312,0.2325,0.229,0.2379,0.2403,0.2425,0.2152,0.2152,0.2151,0,0,0.1985,0.1975,0.2025,0.2056,0.2098,0.2114,0.2128,0.2161,0.2174,0.2223,0.2212,0.2251,0.2289,0.2329,0.2352,0.2451,0.2483,0.2468,0.2548,0.264,0.2661,0.2679,0.2865,0.2899,0.2495,0.2496,0.2496,0,0.1997,0.2047,0.2048,0.2112,0.2139,0.2136,0.2196,0.2227,0.2263,0.2276,0.2261,0.2334,0.2346,0.2449,0.2492,0.2492,0.2568,0.2486,0.2664,0.2682,0.2698,0.2882,0.2917,0.2504,0.2503,0.2503,0.2502,0,0.2104,0.2134,0.2171,0.2244,0.2276,0.2324,0.2361,0.2389,0.2393,0.2419,0.2485,0.2503,0.2545,0.2585,0.2572,0.2704,0.2738,0.2666,0.2622,0.2733,0.2921,0.2955,0.2517,0.2514,0.2511,0.2509,0,0,0.2159,0.2227,0.224,0.227,0.2335,0.2374,0.2449,0.2504,0.2558,0.2591,0.2665,0.2729,0.2716,0.2735,0.2745,0.2826,0.3057,0.2802,0.2803,0.3,0.3348,0.3363,0.3401,0.3021,0.3025,0.3028,0.3479,0,0.2238,0.2346,0.2359,0.2458,0.251,0.2513,0.2584,0.2634,0.2671,0.2748,0.277,0.2848,0.2789,0.2834,0.2903,0.2993,0.3131,0.2946,0.3194,0.3203,0.3211,0.3432,0.3355,0.3744,0.351,0.3516,0.352,0,0.2345,0.2392,0.2485,0.2536,0.2558,0.2616,0.2689,0.2753,0.2847,0.2877,0.2937,0.296,0.3093,0.301,0.3251,0.314,0.3253,0.3326,0.3344,0.3295,0.3274,0.3569,0.3812,0.3669,0.357,0.3566,0.3562,0,0.2392,0.2475,0.2532,0.2561,0.2637,0.2662,0.2701,0.2788,0.2861,0.2969,0.3053,0.3153,0.3262,0.3361,0.3493,0.3404,0.3767,0.3672,0.3816,0.3824,0.3768,0.3761,0.3891,0.3857,0.3856,0.3855,0.3853,0,0.2475,0.2532,0.255,0.2597,0.2672,0.2697,0.2797,0.2848,0.2959,0.3073,0.3122,0.3247,0.3345,0.3536,0.3607,0.385,0.3885,0.3886,0.3938,0.3837,0.3831,0.3699,0.3574,0.3872,0.3868,0.3865,0.3862,0,0.2564,0.257,0.2647,0.269,0.2706,0.2768,0.2864,0.2941,0.3036,0.3195,0.3246,0.3416,0.3658,0.3796,0.4034,0.4055,0.4143,0.4306,0.4228,0.4258,0.4187,0.4073,0.4125,0.4004,0.4572,0.4575,0.4578,0,0.2648,0.2678,0.2722,0.2757,0.2781,0.2856,0.291,0.2982,0.3066,0.3288,0.3374,0.3652,0.3817,0.4213,0.4326,0.4564,0.4323,0.4604,0.4369,0.4229,0.4142,0.3924,0.3799,0.4447,0.4448,0.4449,0.445,0,0.279,0.2773,0.2826,0.2858,0.29,0.2961,0.303,0.3103,0.3197,0.3331,0.3511,0.3664,0.4058,0.4249,0.4555,0.4644,0.4363,0.463,0.4491,0.4068,0.3833,0.3726,0.4167,0.4459,0.4458,0.4457,0.4457,0.4457,0.2893,0.2925,0.2922,0.2963,0.2999,0.3011,0.3032,0.3111,0.3211,0.3358,0.3539,0.3755,0.4089,0.4496,0.4559,0.4607,0.4481,0.4492,0.44,0.4219,0.3955,0.4453,0.475,0.4751,0.4751,0.4752,0.4752,0,0.2968,0.2963,0.3015,0.3006,0.3013,0.3016,0.3066,0.3057,0.3113,0.3335,0.3479,0.3841,0.4093,0.4318,0.4497,0.4378,0.4169,0.4253,0.3901,0.3808,0.4312,0.4148,0.4315,0.4315,0.4315,0.4315,0.4316,0.4316,0.2995,0.3014,0.3001,0.2984,0.2976,0.2912,0.2905,0.2918,0.3032,0.3205,0.3408,0.3636,0.3953,0.422,0.419,0.4102,0.3717,0.3648,0.3535,0.3848,0.3859,0.387,0.3687,0.3755,0.3754,0.2931,0.2924,0.2919]},{"header":{"parameterUnit":"m.s-1","parameterCategory":2,"la1":30.2991,"la2":30.254,"lo1":-89.0895,"lo2":-89.0444,"dy":0.0017,"dx":0.0017,"nx":28,"ny":28,"refTime":"2025-09-14T09:00:00:Z","depth":"0","parameterNumber":3,"parameterNumberName":"V-component_of_CURRENTS"},"data":[0,0,0,0,0,0,0,0,0,0,0,0,0,0,0,0,0,0,0,0,0,0,0,0,0,0,0,0,0,0,0,0,0,0,0,0,0,0,0,0,0,0,0,0,0,0,0,0,0,0,0,0,0,0,0,0,0,0,-0.0749,-0.075,0,-0.0853,-0.0854,-0.0855,-0.0914,-0.0915,-0.0915,-0.0915,-0.1025,-0.1027,-0.103,0,0,0,0,0,0,0,0,0,0,0,0,0,-0.067,-0.0671,-0.0749,-0.075,-0.0752,-0.0853,-0.0854,-0.0856,-0.0914,-0.0915,-0.0915,-0.0915,-0.1024,-0.1027,-0.103,0,0,0,0,0,0,0,0,0,0,0,0,0,-0.0732,-0.0671,-0.0749,-0.0794,-0.0799,-0.0853,-0.0854,-0.0856,-0.0914,-0.0915,-0.0915,-0.0915,-0.1023,-0.1027,-0.1031,-0.1048,0,0,-0.1043,-0.1045,0,0,0,0,0,0,0,0,-0.0728,-0.0734,-0.0786,-0.0791,-0.0796,-0.0872,-0.0867,-0.0921,-0.0914,-0.087,-0.0915,-0.0915,-0.0974,-0.0982,-0.1,-0.1053,-0.1058,-0.1044,-0.1046,-0.1048,-0.1049,0,0,0,0,0,0,0,-0.0724,-0.0731,-0.079,-0.0787,-0.0794,-0.0832,-0.084,-0.0878,-0.0918,-0.0874,-0.0878,-0.0891,-0.0977,-0.0996,-0.1003,-0.106,-0.1043,-0.1047,-0.105,-0.1051,-0.1096,-0.1095,0,0,0,0,0,0,-0.0708,-0.0726,-0.0787,-0.0793,-0.0763,-0.0833,-0.0842,-0.0847,-0.0918,-0.0929,-0.089,-0.0893,-0.0989,-0.0998,-0.1007,-0.0982,-0.1048,-0.1051,-0.1054,-0.1098,-0.1096,-0.1095,0,0,0,0,0,0,-0.0706,-0.0712,-0.0782,-0.0763,-0.0775,-0.0833,-0.0838,-0.0848,-0.0864,-0.0931,-0.0942,-0.0895,-0.099,-0.1002,-0.1022,-0.0988,-0.1053,-0.1057,-0.1099,-0.1097,-0.1095,-0.0963,0,0,0,0,0,0,-0.0703,-0.071,-0.0708,-0.0761,-0.0775,-0.0789,-0.0838,-0.085,-0.0872,-0.0876,-0.0938,-0.0949,-0.0991,-0.1015,-0.1026,-0.0995,-0.106,-0.1101,-0.1098,-0.1096,-0.0969,-0.0957,-0.0947,0,0,0,0,0,-0.0699,-0.0682,-0.0707,-0.0714,-0.077,-0.0787,-0.0797,-0.0841,-0.0871,-0.086,-0.0906,-0.0947,-0.1008,-0.1018,-0.103,-0.1,-0.1102,-0.1099,-0.1096,-0.0974,-0.0959,-0.0947,0,0,0,0,0,0,-0.0637,-0.0688,-0.0716,-0.0714,-0.0741,-0.0797,-0.0794,-0.0833,-0.0863,-0.0868,-0.0936,-0.0949,-0.0953,-0.0997,-0.1006,-0.1007,-0.106,-0.106,-0.0963,-0.095,-0.0939,-0.0892,-0.1064,0,0,0,0,0,-0.0626,-0.0626,-0.0679,-0.0671,-0.0683,-0.074,-0.0756,-0.0785,-0.0822,-0.0836,-0.088,-0.0924,-0.0953,-0.0967,-0.1,-0.1003,-0.1004,-0.0992,-0.098,-0.0971,-0.0941,-0.0927,-0.0911,-0.1086,-0.1086,-0.1086,0,0,-0.0597,-0.0625,-0.0625,-0.0659,-0.0685,-0.0675,-0.0749,-0.0756,-0.0743,-0.0843,-0.0834,-0.0888,-0.0946,-0.0943,-0.0949,-0.0975,-0.0914,-0.0967,-0.0958,-0.0934,-0.0922,-0.0905,-0.089,-0.1084,-0.1084,-0.1085,0,0,-0.0524,-0.0565,-0.0536,-0.0554,-0.0587,-0.0621,-0.0618,-0.0667,-0.0683,-0.0692,-0.0755,-0.0778,-0.0833,-0.0854,-0.0876,-0.0824,-0.0857,-0.0848,-0.0751,-0.0737,-0.0722,-0.0709,-0.0652,-0.0635,-0.084,-0.084,-0.084,0,-0.0485,-0.0469,-0.0527,-0.0502,-0.0509,-0.0587,-0.0553,-0.0574,-0.0621,-0.0629,-0.0665,-0.0726,-0.0779,-0.0768,-0.0752,-0.0793,-0.0784,-0.0796,-0.0719,-0.0706,-0.0695,-0.0641,-0.0623,-0.0833,-0.0834,-0.0835,-0.0835,0,-0.0393,-0.0383,-0.0363,-0.0361,-0.0371,-0.0356,-0.0399,-0.0409,-0.0452,-0.0483,-0.0489,-0.0555,-0.0589,-0.0613,-0.0669,-0.062,-0.0636,-0.0706,-0.0745,-0.0669,-0.0617,-0.0601,-0.0824,-0.0826,-0.0828,-0.083,0,0,-0.0291,-0.0298,-0.0289,-0.0278,-0.0303,-0.0301,-0.0279,-0.029,-0.0269,-0.0317,-0.0281,-0.0343,-0.0393,-0.042,-0.0489,-0.0481,-0.0393,-0.0552,-0.0554,-0.0478,-0.0323,-0.0332,-0.0316,-0.0457,-0.0455,-0.0453,-0.0306,0,-0.02,-0.0135,-0.0164,-0.0102,-0.008,-0.0144,-0.0115,-0.0135,-0.0162,-0.0143,-0.0208,-0.0198,-0.0314,-0.0317,-0.033,-0.0386,-0.0351,-0.0423,-0.0423,-0.0421,-0.0426,-0.0299,-0.0311,-0.0183,-0.0291,-0.0288,-0.0286,0,-0.0096,-0.0077,-0.0002,0.0003,0.0009,0.0039,0.0046,0.0064,0.0059,0.0042,0.0028,-0.0021,-0.0015,-0.012,-0.0138,-0.0183,-0.0226,-0.0266,-0.0263,-0.0305,-0.0402,-0.0286,-0.0151,-0.0408,-0.0263,-0.0264,-0.0266,0,-0.0005,0.0035,0.0091,0.0096,0.0101,0.0123,0.0127,0.0124,0.0169,0.0182,0.0236,0.0182,0.022,0.0128,0.0032,-0.0046,0.0034,-0.0092,-0.0121,-0.0121,-0.0145,-0.0153,-0.0245,-0.0063,-0.0063,-0.0063,-0.0064,0,0.0096,0.0145,0.0138,0.0172,0.0247,0.0212,0.03,0.0291,0.0341,0.0439,0.0352,0.0447,0.0286,0.0291,0.0142,0.0092,0.0125,-0.0047,-0.0073,-0.0098,-0.0102,-0.0344,-0.0495,-0.0058,-0.0059,-0.006,-0.0061,0,0.021,0.0202,0.0271,0.0284,0.0298,0.0357,0.0429,0.0494,0.0523,0.0664,0.0695,0.0703,0.0705,0.0559,0.0465,0.029,0.0074,0.0172,0.018,0.0151,-0.0181,-0.0323,-0.0378,-0.0487,0.0156,0.0157,0.0158,0,0.0285,0.0323,0.0369,0.041,0.0429,0.0502,0.0561,0.0592,0.0685,0.0831,0.093,0.0992,0.1046,0.0917,0.0641,0.0444,0.0184,0.0277,0.0104,-0.0146,-0.0324,-0.0431,-0.0529,0.0146,0.0146,0.0147,0.0147,0,0.0408,0.0416,0.046,0.0535,0.0605,0.0701,0.0795,0.0906,0.0978,0.1105,0.1279,0.1344,0.1254,0.1078,0.0807,0.0597,0.0072,0.0278,0.0011,-0.032,-0.0431,-0.0567,0.0015,0.0151,0.0151,0.015,0.015,0.015,0.0489,0.0534,0.0558,0.0638,0.0735,0.0864,0.0951,0.1083,0.1251,0.145,0.1527,0.1672,0.1422,0.105,0.0728,0.0129,0.0123,-0.0097,-0.0231,-0.0302,-0.0471,0.0146,0.0233,0.0233,0.0233,0.0233,0.0233,0,0.0519,0.0545,0.064,0.0721,0.0838,0.0874,0.1066,0.1165,0.1358,0.1621,0.1769,0.1816,0.1389,0.0926,0.0186,-0.0291,-0.0513,-0.057,-0.0764,-0.0829,-0.0276,-0.035,-0.0376,-0.0376,-0.0376,-0.0376,-0.0376,-0.0375,0.0516,0.0566,0.0602,0.0755,0.0841,0.0986,0.1093,0.1278,0.1485,0.1802,0.1993,0.2146,0.1835,0.0413,-0.0608,-0.0852,-0.1236,-0.1268,-0.1447,-0.1147,-0.1115,-0.1086,-0.1193,-0.1395,-0.1397,-0.1963,-0.1969,-0.1974]}],[{"header":{"parameterUnit":"m.s-1","parameterCategory":2,"la1":30.2991,"la2":30.254,"lo1":-89.0895,"lo2":-89.0444,"dy":0.0017,"dx":0.0017,"nx":28,"ny":28,"refTime":"2025-09-14T09:00:00:Z","depth":"2","parameterNumber":2,"parameterNumberName":"U-component_of_CURRENTS"},"data":[0,0,0,0,0,0,0,0,0,0,0,0,0,0,0,0,0,0,0,0,0,0,0,0,0,0,0,0,0,0,0,0,0,0,0,0,0,0,0,0,0,0,0,0,0,0,0,0,0,0,0,0,0,0,0,0,0,0,0.2025,0.2025,0,0.2067,0.2067,0.2068,0.2075,0.2075,0.2074,0.2074,0.214,0.2142,0.2144,0,0,0,0,0,0,0,0,0,0,0,0,0,0.1956,0.1957,0.2025,0.2026,0.2026,0.2067,0.2067,0.2068,0.2075,0.2075,0.2074,0.2074,0.2139,0.2141,0.2144,0,0,0,0,0,0,0,0,0,0,0,0,0,0.199,0.1957,0.2025,0.2036,0.2037,0.2067,0.2067,0.2068,0.2075,0.2075,0.2074,0.2074,0.2138,0.2141,0.2144,0.2169,0,0,0.2153,0.2154,0,0,0,0,0,0,0,0,0.1988,0.1992,0.2033,0.2035,0.2037,0.2066,0.2067,0.2103,0.2075,0.2059,0.2074,0.2074,0.2118,0.2123,0.213,0.2173,0.2175,0.2153,0.2155,0.2156,0.2157,0,0,0,0,0,0,0,0.1985,0.199,0.204,0.2034,0.2036,0.204,0.2044,0.2074,0.209,0.2061,0.2062,0.2068,0.2119,0.2127,0.2131,0.2176,0.2153,0.2156,0.2158,0.2159,0.2314,0.2316,0,0,0,0,0,0,0.1983,0.1988,0.2039,0.2042,0.2012,0.2042,0.2046,0.2056,0.2089,0.2094,0.2069,0.2068,0.2122,0.2128,0.2134,0.2189,0.2156,0.2159,0.2161,0.2311,0.2314,0.2317,0,0,0,0,0,0,0.1981,0.1987,0.2037,0.2016,0.2023,0.2043,0.2054,0.2057,0.2081,0.2095,0.21,0.2092,0.2122,0.2129,0.217,0.2191,0.216,0.2163,0.2309,0.2312,0.2316,0.2286,0,0,0,0,0,0,0.1979,0.1986,0.2002,0.2016,0.2024,0.2068,0.2055,0.2058,0.2086,0.2086,0.2117,0.2121,0.2122,0.2166,0.2173,0.2194,0.2165,0.2306,0.231,0.2314,0.2284,0.2288,0.2291,0,0,0,0,0,0.1977,0.1996,0.2002,0.2009,0.2042,0.2069,0.2074,0.2085,0.2087,0.2105,0.2121,0.2121,0.22,0.2169,0.2178,0.22,0.2304,0.2309,0.2314,0.2282,0.2287,0.2291,0,0,0,0,0,0,0.1974,0.2,0.2006,0.2033,0.2056,0.2071,0.2088,0.21,0.2126,0.2126,0.2139,0.2145,0.2197,0.2213,0.2179,0.2266,0.2258,0.2265,0.2231,0.2236,0.2239,0.2248,0.2168,0,0,0,0,0,0.1981,0.2,0.2026,0.2046,0.206,0.2079,0.2095,0.2103,0.2124,0.2135,0.2156,0.2188,0.2225,0.2239,0.2276,0.2312,0.2358,0.2342,0.2345,0.2348,0.2366,0.2443,0.2454,0.2334,0.2334,0.2334,0,0,0.1999,0.2001,0.2023,0.2047,0.2063,0.2085,0.2088,0.2113,0.2132,0.2139,0.2177,0.2206,0.2243,0.2282,0.2307,0.2294,0.241,0.2354,0.2355,0.2373,0.2449,0.246,0.2471,0.2338,0.2337,0.2337,0,0,0.2006,0.2033,0.2044,0.2064,0.2082,0.2099,0.2113,0.2141,0.2156,0.2194,0.221,0.2248,0.2301,0.2322,0.2341,0.2396,0.2435,0.2421,0.2431,0.2504,0.2514,0.2523,0.26,0.2616,0.2411,0.2411,0.2411,0,0.2005,0.2034,0.2054,0.2058,0.2084,0.2109,0.2133,0.2152,0.219,0.2217,0.2207,0.2308,0.2319,0.238,0.2388,0.2401,0.2458,0.2396,0.2505,0.2515,0.2525,0.2602,0.262,0.241,0.2411,0.2411,0.2411,0,0.202,0.2048,0.2057,0.2074,0.2105,0.2133,0.2163,0.2198,0.2222,0.2245,0.2319,0.2338,0.2403,0.2408,0.2404,0.2488,0.2513,0.2503,0.2481,0.2535,0.2613,0.2632,0.2409,0.241,0.241,0.241,0,0,0.1997,0.2055,0.2057,0.2088,0.2122,0.2152,0.2189,0.2246,0.2301,0.2321,0.24,0.2423,0.2451,0.2478,0.249,0.2529,0.2623,0.2541,0.2545,0.2596,0.2806,0.274,0.2755,0.2634,0.2637,0.264,0.2833,0,0.1998,0.2023,0.2055,0.2113,0.2147,0.2193,0.2246,0.2297,0.2342,0.2424,0.2446,0.2533,0.2473,0.2528,0.2548,0.2629,0.2675,0.2573,0.2768,0.2774,0.2689,0.2775,0.2532,0.2677,0.2852,0.2855,0.2858,0,0.1993,0.2021,0.2069,0.2167,0.219,0.2231,0.2341,0.2393,0.249,0.2543,0.2601,0.2637,0.2709,0.2659,0.2781,0.2727,0.2769,0.2805,0.2813,0.2777,0.2743,0.2656,0.2706,0.289,0.2888,0.2885,0.2883,0,0.1995,0.2036,0.2083,0.2109,0.2213,0.2262,0.2331,0.2429,0.2522,0.2641,0.2738,0.279,0.2901,0.2918,0.2938,0.2899,0.3077,0.3036,0.3016,0.3012,0.2858,0.2835,0.3136,0.3136,0.3136,0.3135,0.3134,0,0.1998,0.2053,0.2085,0.2146,0.2242,0.2284,0.2421,0.2511,0.2646,0.2767,0.2814,0.2926,0.2982,0.3055,0.302,0.3076,0.3145,0.3052,0.3066,0.2842,0.2816,0.3036,0.3022,0.3142,0.3141,0.3139,0.3138,0,0.2024,0.2046,0.2125,0.2219,0.2269,0.2336,0.2524,0.2593,0.2744,0.2909,0.2969,0.3123,0.3217,0.3216,0.3307,0.3239,0.3252,0.3248,0.2979,0.2957,0.3128,0.311,0.3289,0.3288,0.3288,0.3287,0.3287,0,0.2057,0.2083,0.2196,0.2236,0.2291,0.2402,0.2484,0.2652,0.2725,0.2995,0.3058,0.3249,0.3289,0.3392,0.3316,0.3276,0.3302,0.3068,0.2931,0.3152,0.3148,0.3131,0.3115,0.2729,0.2724,0.272,0.2717,0,0.2116,0.2132,0.2175,0.2267,0.2339,0.2443,0.2562,0.2659,0.2824,0.2924,0.3058,0.3125,0.3278,0.3147,0.3155,0.3081,0.3038,0.2989,0.3326,0.2709,0.2634,0.2627,0.2628,0.2682,0.2685,0.2688,0.269,0.2691,0.2128,0.214,0.217,0.2246,0.2325,0.241,0.2477,0.2545,0.2644,0.2726,0.2881,0.2875,0.2973,0.2838,0.2752,0.2712,0.2904,0.2768,0.2777,0.279,0.2672,0.2598,0.2619,0.2622,0.2624,0.2627,0.2629,0,0.2091,0.2094,0.2156,0.2216,0.2247,0.235,0.2456,0.2437,0.2441,0.2495,0.251,0.2312,0.2293,0.2391,0.2283,0.2303,0.2235,0.2221,0.2107,0.2146,0.218,0.2025,0.1804,0.1801,0.1798,0.1796,0,0,0.2045,0.2043,0.2068,0.2098,0.2153,0.2173,0.2209,0.2178,0.2186,0.202,0.1961,0.2104,0.229,0.1975,0.1975,0.1877,0.1979,0.1807,0.2474,0.2378,0.2407,0.2514,0.2324,0,0,0,0,0]},{"header":{"parameterUnit":"m.s-1","parameterCategory":2,"la1":30.2991,"la2":30.254,"lo1":-89.0895,"lo2":-89.0444,"dy":0.0017,"dx":0.0017,"nx":28,"ny":28,"refTime":"2025-09-14T09:00:00:Z","depth":"2","parameterNumber":3,"parameterNumberName":"V-component_of_CURRENTS"},"data":[0,0,0,0,0,0,0,0,0,0,0,0,0,0,0,0,0,0,0,0,0,0,0,0,0,0,0,0,0,0,0,0,0,0,0,0,0,0,0,0,0,0,0,0,0,0,0,0,0,0,0,0,0,0,0,0,0,0,0.001,0.001,0,-0.0038,-0.0039,-0.004,-0.0084,-0.0085,-0.0085,-0.0086,-0.0182,-0.0184,-0.0186,0,0,0,0,0,0,0,0,0,0,0,0,0,0.0017,0.0018,0.001,0.001,0.0009,-0.0038,-0.0039,-0.004,-0.0084,-0.0085,-0.0085,-0.0086,-0.0181,-0.0184,-0.0187,0,0,0,0,0,0,0,0,0,0,0,0,0,-0.0005,0.0018,0.001,-0.0018,-0.0021,-0.0038,-0.0039,-0.004,-0.0084,-0.0085,-0.0086,-0.0086,-0.0181,-0.0184,-0.0187,-0.0195,0,0,-0.0197,-0.0198,0,0,0,0,0,0,0,0,-0.0004,-0.0005,-0.0013,-0.0016,-0.0019,-0.0055,-0.0072,-0.0094,-0.0084,-0.0062,-0.0086,-0.0086,-0.0143,-0.0149,-0.0158,-0.0199,-0.0203,-0.0197,-0.0199,-0.0201,-0.0202,0,0,0,0,0,0,0,-0.0002,-0.0004,-0.0011,-0.0014,-0.0017,-0.0044,-0.0047,-0.0076,-0.01,-0.0064,-0.0067,-0.0069,-0.0145,-0.0155,-0.0161,-0.0205,-0.0197,-0.02,-0.0202,-0.0203,-0.0268,-0.0268,0,0,0,0,0,0,0.001,-0.0002,-0.0009,-0.0012,-0.0011,-0.0043,-0.0047,-0.0044,-0.0099,-0.0107,-0.0069,-0.0071,-0.0149,-0.0157,-0.0164,-0.0171,-0.0201,-0.0204,-0.0206,-0.0268,-0.0268,-0.0268,0,0,0,0,0,0,0.0011,0.001,-0.0007,-0.0007,-0.0011,-0.0042,-0.0038,-0.0044,-0.0057,-0.0102,-0.0112,-0.0076,-0.015,-0.016,-0.0182,-0.0176,-0.0205,-0.0208,-0.0269,-0.0268,-0.0268,-0.0189,0,0,0,0,0,0,0.0011,0.0011,0.0016,-0.0006,-0.0011,-0.0008,-0.0038,-0.0045,-0.0057,-0.0061,-0.0111,-0.012,-0.0151,-0.0177,-0.0186,-0.0181,-0.0211,-0.0269,-0.0268,-0.0268,-0.0192,-0.0186,-0.0181,0,0,0,0,0,0.0012,0.003,0.0017,0.0016,-0.0002,-0.0007,-0.0011,-0.0037,-0.0057,-0.0054,-0.0087,-0.0119,-0.0181,-0.0179,-0.0189,-0.0185,-0.0269,-0.0269,-0.0268,-0.0194,-0.0187,-0.0181,0,0,0,0,0,0,0.0041,0.0026,0.0012,0.0025,0.0012,-0.0014,-0.0012,-0.0034,-0.0058,-0.0064,-0.0112,-0.0123,-0.0141,-0.0174,-0.0171,-0.0204,-0.0232,-0.0234,-0.0173,-0.0166,-0.0161,-0.0164,-0.0213,0,0,0,0,0,0.0049,0.0056,0.0036,0.0047,0.0042,0.0013,0.0006,-0.001,-0.0034,-0.0045,-0.008,-0.0118,-0.0146,-0.0164,-0.0193,-0.0209,-0.0246,-0.0215,-0.021,-0.0205,-0.0215,-0.0256,-0.0254,-0.0266,-0.0266,-0.0266,0,0,0.0055,0.0057,0.0054,0.0053,0.0039,0.0039,0.0007,0.0005,0.0003,-0.0052,-0.0065,-0.0098,-0.0145,-0.016,-0.0172,-0.0187,-0.0218,-0.0204,-0.0199,-0.0213,-0.0255,-0.0254,-0.0253,-0.0266,-0.0266,-0.0266,0,0,0.0084,0.0081,0.0092,0.0087,0.0079,0.0064,0.0065,0.0041,0.0028,0.0014,-0.0026,-0.0056,-0.0097,-0.0129,-0.0151,-0.0137,-0.0185,-0.0145,-0.0122,-0.0161,-0.016,-0.016,-0.0189,-0.0193,-0.0145,-0.0144,-0.0144,0,0.0097,0.0109,0.0094,0.0108,0.0109,0.0078,0.0088,0.0074,0.0045,0.0036,0.002,-0.0046,-0.0085,-0.0112,-0.0109,-0.0125,-0.0152,-0.0138,-0.0153,-0.0154,-0.0155,-0.0186,-0.019,-0.0141,-0.0141,-0.0141,-0.0142,0,0.0123,0.0136,0.0148,0.0152,0.0151,0.0161,0.014,0.0135,0.0114,0.0092,0.0065,0.0014,-0.0028,-0.0043,-0.0074,-0.0101,-0.0117,-0.0136,-0.0165,-0.0149,-0.0182,-0.0188,-0.0135,-0.0136,-0.0138,-0.0139,0,0,0.0148,0.0163,0.0167,0.0182,0.0177,0.0185,0.0184,0.0176,0.018,0.014,0.0134,0.0075,0.0042,0.0012,-0.003,-0.0071,-0.0099,-0.0106,-0.0109,-0.0128,-0.0177,-0.0197,-0.0206,-0.0116,-0.0117,-0.0118,-0.019,0,0.0174,0.0218,0.0209,0.0243,0.0262,0.0241,0.0245,0.0232,0.0218,0.0207,0.0144,0.0123,0.0066,0.0051,0.0001,-0.0069,-0.0115,-0.0078,-0.0198,-0.0202,-0.0216,-0.0214,-0.0193,-0.0257,-0.0197,-0.0198,-0.0199,0,0.02,0.023,0.0269,0.0299,0.0303,0.0311,0.0322,0.0322,0.0295,0.0282,0.0241,0.0198,0.0134,0.0086,-0.004,-0.001,-0.0095,-0.0157,-0.0161,-0.0217,-0.0234,-0.0269,-0.0271,-0.021,-0.0209,-0.0208,-0.0207,0,0.0229,0.0274,0.0313,0.0322,0.0342,0.035,0.0352,0.034,0.0361,0.0327,0.0343,0.0251,0.0233,0.0103,-0.0031,-0.0032,-0.0171,-0.0185,-0.0287,-0.0288,-0.0317,-0.0319,-0.0289,-0.0289,-0.0289,-0.0288,-0.0288,0,0.0259,0.0288,0.0334,0.0348,0.0393,0.039,0.0422,0.0412,0.0424,0.0464,0.0383,0.0406,0.0238,0.0145,-0.0007,-0.0164,-0.0155,-0.0291,-0.0313,-0.0287,-0.0286,-0.0287,-0.0285,-0.0291,-0.029,-0.029,-0.0289,0,0.0263,0.0293,0.0344,0.0387,0.0402,0.0429,0.0474,0.0511,0.0511,0.0564,0.0563,0.0529,0.0419,0.0229,0.0037,-0.0103,-0.0276,-0.0341,-0.0296,-0.0313,-0.0371,-0.0365,-0.0448,-0.045,-0.0451,-0.0452,-0.0453,0,0.0257,0.0289,0.0369,0.0409,0.0423,0.047,0.0509,0.0537,0.06,0.0651,0.0698,0.0627,0.0597,0.0302,0.0024,-0.0254,-0.0283,-0.0408,-0.0417,-0.0377,-0.039,-0.0382,-0.0375,-0.0416,-0.0417,-0.0417,-0.0417,0,0.0251,0.029,0.0344,0.0434,0.0493,0.0568,0.0638,0.0716,0.0773,0.0841,0.0929,0.091,0.0637,0.0384,-0.0004,-0.0192,-0.0365,-0.0423,-0.0401,-0.0376,-0.0352,-0.0363,-0.0356,-0.0421,-0.042,-0.042,-0.042,-0.042,0.0256,0.0303,0.0396,0.0487,0.0567,0.0691,0.0791,0.0896,0.1032,0.1152,0.1091,0.1061,0.0743,0.027,-0.005,-0.038,-0.0374,-0.0485,-0.0482,-0.0478,-0.0459,-0.0438,-0.0519,-0.0519,-0.0519,-0.052,-0.052,0,0.0291,0.0363,0.0442,0.0589,0.0714,0.0736,0.0911,0.1043,0.1251,0.126,0.1303,0.0994,0.0687,0.0335,-0.0158,-0.0456,-0.0471,-0.0533,-0.0488,-0.0483,-0.048,-0.0459,-0.052,-0.052,-0.0521,-0.0521,0,0,0.0319,0.0427,0.0489,0.0715,0.0821,0.1024,0.1153,0.1331,0.1406,0.1434,0.137,0.1216,0.0784,0.0435,0.0024,-0.0237,-0.0283,-0.0287,-0.0262,-0.0157,-0.0149,-0.0437,-0.0398,0,0,0,0,0]}],[{"header":{"parameterUnit":"m.s-1","parameterCategory":2,"la1":30.2991,"la2":30.254,"lo1":-89.0895,"lo2":-89.0444,"dy":0.0017,"dx":0.0017,"nx":28,"ny":28,"refTime":"2025-09-14T09:00:00:Z","depth":"4","parameterNumber":2,"parameterNumberName":"U-component_of_CURRENTS"},"data":[0,0,0,0,0,0,0,0,0,0,0,0,0,0,0,0,0,0,0,0,0,0,0,0,0,0,0,0,0,0,0,0,0,0,0,0,0,0,0,0,0,0,0,0,0,0,0,0,0,0,0,0,0,0,0,0,0,0,0.1071,0.1072,0,0.1131,0.1132,0.1132,0.1185,0.1186,0.1187,0.1188,0.1254,0.1255,0.1256,0,0,0,0,0,0,0,0,0,0,0,0,0,0.0992,0.0993,0.1071,0.1072,0.1073,0.1131,0.1132,0.1132,0.1185,0.1186,0.1187,0.1188,0.1253,0.1255,0.1256,0,0,0,0,0,0,0,0,0,0,0,0,0,0.1035,0.0993,0.1071,0.1107,0.1111,0.1131,0.1132,0.1133,0.1185,0.1186,0.1187,0.1188,0.1253,0.1254,0.1256,0.1244,0,0,0.1261,0.1262,0,0,0,0,0,0,0,0,0.1032,0.1038,0.1101,0.1105,0.1109,0.1153,0.1128,0.1171,0.1185,0.1156,0.1188,0.1189,0.1221,0.1225,0.1232,0.1247,0.125,0.1261,0.1262,0.1263,0.1263,0,0,0,0,0,0,0,0.1029,0.1035,0.1093,0.1102,0.1107,0.1117,0.1124,0.1136,0.118,0.1158,0.1163,0.1171,0.1223,0.123,0.1234,0.1251,0.1261,0.1262,0.1263,0.1264,0.1319,0.132,0,0,0,0,0,0,0.1024,0.1032,0.1091,0.1095,0.1074,0.1118,0.1126,0.1137,0.118,0.1188,0.117,0.1173,0.1227,0.1232,0.1236,0.1311,0.1263,0.1264,0.1265,0.1319,0.132,0.132,0,0,0,0,0,0,0.1022,0.1029,0.1089,0.1066,0.1075,0.1118,0.113,0.1137,0.1175,0.1189,0.1197,0.1203,0.1228,0.1234,0.1276,0.1311,0.1265,0.1266,0.1318,0.1319,0.132,0.1404,0,0,0,0,0,0,0.102,0.1028,0.1049,0.1066,0.1076,0.1123,0.1129,0.1138,0.1177,0.1183,0.122,0.1225,0.1229,0.1274,0.1278,0.1312,0.1268,0.1318,0.1319,0.132,0.1401,0.1408,0.1414,0,0,0,0,0,0.1017,0.1035,0.105,0.1058,0.1099,0.1124,0.1131,0.1163,0.1178,0.12,0.1227,0.1226,0.1282,0.1276,0.128,0.1316,0.1317,0.1318,0.132,0.1398,0.1406,0.1413,0,0,0,0,0,0,0.1014,0.1043,0.1059,0.1087,0.1115,0.1134,0.1159,0.1177,0.1215,0.123,0.124,0.1247,0.1296,0.1286,0.1279,0.1329,0.1296,0.1298,0.1354,0.1362,0.1368,0.138,0.1269,0,0,0,0,0,0.1022,0.1041,0.1071,0.1095,0.1112,0.114,0.116,0.1185,0.1212,0.1231,0.1254,0.1274,0.1297,0.1316,0.133,0.1361,0.1366,0.1381,0.1387,0.1393,0.1403,0.1435,0.1446,0.1324,0.1324,0.1324,0,0,0.1021,0.1044,0.1054,0.1096,0.1119,0.1149,0.1155,0.1196,0.1229,0.123,0.1287,0.1303,0.1309,0.1351,0.137,0.1353,0.1432,0.1395,0.14,0.1407,0.1437,0.145,0.1461,0.1325,0.1325,0.1324,0,0,0.103,0.1058,0.1081,0.1109,0.1157,0.1174,0.1191,0.1231,0.1262,0.1311,0.1321,0.1363,0.139,0.141,0.1419,0.1465,0.1466,0.1463,0.1513,0.1544,0.1555,0.1565,0.1601,0.1614,0.1467,0.1467,0.1467,0,0.1036,0.1068,0.1092,0.1128,0.1155,0.1187,0.1223,0.1253,0.1304,0.1334,0.1341,0.1408,0.142,0.1473,0.1493,0.1485,0.1501,0.1489,0.1556,0.1565,0.1574,0.1609,0.1621,0.1471,0.1471,0.147,0.147,0,0.1063,0.1097,0.1113,0.1165,0.1199,0.1233,0.1278,0.1318,0.1357,0.1391,0.1464,0.1489,0.1531,0.1538,0.1536,0.1601,0.1593,0.1564,0.1544,0.1592,0.1625,0.1636,0.1477,0.1476,0.1474,0.1473,0,0,0.1053,0.1118,0.1129,0.1155,0.1226,0.1249,0.131,0.137,0.1414,0.1476,0.1538,0.1592,0.1621,0.1632,0.1641,0.167,0.1752,0.1651,0.165,0.1701,0.1835,0.1728,0.173,0.174,0.1742,0.1744,0.184,0,0.107,0.1129,0.1167,0.122,0.1248,0.1299,0.1346,0.141,0.1468,0.1532,0.1587,0.1652,0.1652,0.1689,0.1724,0.1749,0.1784,0.1729,0.1768,0.1769,0.1679,0.174,0.175,0.1848,0.1851,0.1853,0.1854,0,0.1086,0.1123,0.1179,0.124,0.126,0.1304,0.1387,0.1435,0.153,0.1581,0.1667,0.1714,0.1804,0.1775,0.1872,0.1841,0.185,0.1856,0.1859,0.1736,0.1683,0.1784,0.1875,0.1873,0.1872,0.187,0.1869,0,0.1048,0.1128,0.1169,0.1193,0.127,0.1314,0.1364,0.1458,0.1509,0.1627,0.1699,0.1791,0.1862,0.19,0.1946,0.1921,0.2023,0.1984,0.1895,0.1888,0.192,0.1908,0.2031,0.2031,0.2031,0.2031,0.203,0,0.1031,0.1062,0.1158,0.1173,0.1226,0.1301,0.1367,0.1431,0.1542,0.1611,0.1733,0.1804,0.1897,0.1971,0.1981,0.1989,0.2063,0.1922,0.1908,0.1953,0.1944,0.1929,0.1916,0.2034,0.2034,0.2033,0.2032,0,0.096,0.1026,0.1066,0.1164,0.1201,0.1237,0.1354,0.1402,0.1533,0.1635,0.1689,0.1844,0.1949,0.2027,0.2087,0.2032,0.2043,0.2013,0.2085,0.207,0.188,0.187,0.1938,0.1935,0.1933,0.1931,0.1929,0,0.0917,0.0934,0.1038,0.1063,0.1109,0.1183,0.1233,0.137,0.1439,0.1639,0.1688,0.1848,0.1935,0.1965,0.2026,0.2062,0.2021,0.2013,0.1922,0.1892,0.1873,0.1867,0.186,0.1925,0.1924,0.1924,0.1923,0,0.0828,0.0879,0.0923,0.0973,0.1034,0.1086,0.1189,0.1233,0.1399,0.1545,0.1657,0.1728,0.1838,0.1893,0.194,0.1945,0.2015,0.1986,0.199,0.1904,0.1877,0.1859,0.1855,0.1914,0.1916,0.1917,0.1917,0,0.076,0.077,0.0835,0.0874,0.094,0.0977,0.1041,0.1149,0.1239,0.1488,0.1504,0.168,0.1807,0.1833,0.1869,0.1886,0.185,0.1767,0.1782,0.1792,0.1698,0.1638,0.1607,0,0,0,0,0,0.0686,0.0695,0.0723,0.0768,0.0833,0.0877,0.1006,0.1088,0.1271,0.1316,0.1413,0.1513,0.16,0.1677,0.1667,0.1793,0.1843,0.177,0.175,0.1867,0.1877,0.1778,0,0,0,0,0,0,0.0631,0.0664,0.0689,0.0684,0.0695,0.0762,0.0842,0.0968,0.1015,0.1203,0.1266,0.1406,0.1517,0.159,0.163,0.1655,0.1608,0.1876,0.1872,0.1861,0.187,0.1878,0.178,0,0,0,0,0]},{"header":{"parameterUnit":"m.s-1","parameterCategory":2,"la1":30.2991,"la2":30.254,"lo1":-89.0895,"lo2":-89.0444,"dy":0.0017,"dx":0.0017,"nx":28,"ny":28,"refTime":"2025-09-14T09:00:00:Z","depth":"4","parameterNumber":3,"parameterNumberName":"V-component_of_CURRENTS"},"data":[0,0,0,0,0,0,0,0,0,0,0,0,0,0,0,0,0,0,0,0,0,0,0,0,0,0,0,0,0,0,0,0,0,0,0,0,0,0,0,0,0,0,0,0,0,0,0,0,0,0,0,0,0,0,0,0,0,0,0.0125,0.0124,0,0.0085,0.0084,0.0084,0.0052,0.0052,0.0051,0.0051,-0.0017,-0.0018,-0.002,0,0,0,0,0,0,0,0,0,0,0,0,0,0.0138,0.0138,0.0125,0.0124,0.0124,0.0085,0.0084,0.0084,0.0052,0.0052,0.0051,0.0051,-0.0016,-0.0018,-0.002,0,0,0,0,0,0,0,0,0,0,0,0,0,0.0118,0.0138,0.0125,0.0104,0.0102,0.0085,0.0084,0.0084,0.0052,0.0052,0.0051,0.0051,-0.0016,-0.0018,-0.002,-0.0027,0,0,-0.0027,-0.0028,0,0,0,0,0,0,0,0,0.0119,0.0118,0.0107,0.0105,0.0103,0.0074,0.0064,0.0045,0.0052,0.007,0.0051,0.0051,0.0012,0.0007,-0.0,-0.003,-0.0033,-0.0028,-0.0029,-0.003,-0.0031,0,0,0,0,0,0,0,0.0121,0.0119,0.0108,0.0107,0.0104,0.0084,0.0081,0.006,0.0043,0.0069,0.0066,0.0063,0.001,0.0002,-0.0002,-0.0034,-0.0028,-0.003,-0.0031,-0.0032,-0.0077,-0.0077,0,0,0,0,0,0,0.0129,0.0121,0.011,0.0107,0.0111,0.0085,0.0081,0.0083,0.0043,0.0037,0.0063,0.0062,0.0006,0.0001,-0.0005,-0.0017,-0.003,-0.0032,-0.0034,-0.0077,-0.0077,-0.0077,0,0,0,0,0,0,0.013,0.0129,0.0111,0.0113,0.0109,0.0085,0.0087,0.0082,0.0075,0.004,0.0033,0.0061,0.0006,-0.0001,-0.0021,-0.002,-0.0033,-0.0035,-0.0078,-0.0077,-0.0077,-0.004,0,0,0,0,0,0,0.0131,0.013,0.0134,0.0114,0.011,0.0106,0.0087,0.0082,0.0073,0.0071,0.0035,0.0029,0.0005,-0.0017,-0.0023,-0.0023,-0.0037,-0.0078,-0.0077,-0.0077,-0.0042,-0.0039,-0.0036,0,0,0,0,0,0.0131,0.0142,0.0135,0.0133,0.0117,0.0106,0.0102,0.0083,0.0074,0.0074,0.0049,0.003,-0.0019,-0.0019,-0.0026,-0.0027,-0.0078,-0.0077,-0.0077,-0.0043,-0.0039,-0.0036,0,0,0,0,0,0,0.0152,0.014,0.0131,0.0138,0.0124,0.0101,0.0101,0.0087,0.0068,0.0065,0.0032,0.0023,0.0006,-0.0013,-0.0012,-0.0038,-0.0052,-0.0052,-0.0023,-0.002,-0.0017,-0.0005,-0.0039,0,0,0,0,0,0.0159,0.0162,0.0145,0.015,0.0146,0.0124,0.0117,0.0104,0.0085,0.0076,0.0052,0.0026,0.0003,-0.001,-0.0033,-0.0046,-0.0079,-0.005,-0.0048,-0.0045,-0.004,-0.0088,-0.0089,-0.0075,-0.0075,-0.0075,0,0,0.0169,0.0161,0.0164,0.0154,0.0142,0.0141,0.0119,0.0113,0.011,0.0072,0.0062,0.0035,0.0002,-0.0014,-0.0024,-0.0031,-0.0068,-0.0045,-0.0042,-0.0038,-0.0088,-0.0089,-0.0091,-0.0075,-0.0075,-0.0075,0,0,0.0185,0.0183,0.0189,0.0182,0.0168,0.0157,0.0157,0.0137,0.0127,0.0115,0.0084,0.0061,0.003,0.0004,-0.0013,-0.0008,-0.0052,-0.0015,0.0008,-0.0039,-0.0041,-0.0043,-0.0095,-0.0102,-0.0013,-0.0013,-0.0013,0,0.0194,0.02,0.0188,0.0191,0.0191,0.0167,0.0173,0.016,0.0136,0.013,0.0118,0.0068,0.0039,0.0012,0.0014,-0.0002,-0.0038,-0.0002,-0.0036,-0.0038,-0.0041,-0.0094,-0.0102,-0.0012,-0.0012,-0.0012,-0.0012,0,0.021,0.0217,0.0222,0.0218,0.0218,0.022,0.0205,0.02,0.0187,0.0171,0.0146,0.0104,0.0075,0.0059,0.0038,0.0008,-0.0016,-0.0027,-0.0044,-0.004,-0.0097,-0.0106,-0.0009,-0.001,-0.001,-0.0011,0,0,0.0219,0.0231,0.0232,0.0243,0.0234,0.024,0.0238,0.0231,0.0233,0.0202,0.0193,0.015,0.0125,0.0105,0.0068,0.0028,-0.0026,-0.0003,-0.0006,-0.0054,-0.0139,-0.0131,-0.0141,-0.0046,-0.0047,-0.0048,-0.0174,0,0.0231,0.0253,0.0252,0.0277,0.0289,0.0279,0.0284,0.0275,0.0259,0.0244,0.0195,0.0173,0.0142,0.0125,0.008,-0.0001,-0.0047,0.0009,-0.0135,-0.014,-0.0133,-0.0149,-0.0052,-0.0181,-0.0183,-0.0184,-0.0185,0,0.0238,0.0257,0.0286,0.0316,0.0321,0.0333,0.0344,0.0346,0.0318,0.0302,0.0267,0.0225,0.0162,0.0137,0.0001,0.0036,-0.0043,-0.0107,-0.0113,-0.0123,-0.0148,-0.0184,-0.0202,-0.0201,-0.02,-0.0199,-0.0198,0,0.0249,0.0278,0.0309,0.0318,0.0344,0.036,0.0374,0.0364,0.0374,0.0336,0.0329,0.0248,0.0202,0.0098,-0.0028,-0.002,-0.0182,-0.0191,-0.0261,-0.0263,-0.0248,-0.0245,-0.0284,-0.0284,-0.0284,-0.0284,-0.0283,0,0.0257,0.0282,0.0322,0.0341,0.0388,0.0392,0.043,0.0427,0.042,0.0431,0.0363,0.0336,0.019,0.0085,-0.0027,-0.0174,-0.0188,-0.0262,-0.0293,-0.0231,-0.0224,-0.0256,-0.0251,-0.0288,-0.0287,-0.0286,-0.0286,0,0.026,0.0281,0.0328,0.0376,0.0396,0.0432,0.0482,0.0504,0.0489,0.0495,0.0484,0.0385,0.0245,0.0098,-0.009,-0.0172,-0.0312,-0.0359,-0.0289,-0.0314,-0.0364,-0.0356,-0.0454,-0.0455,-0.0456,-0.0456,-0.0456,0,0.0264,0.0288,0.0364,0.0404,0.043,0.0484,0.0523,0.0537,0.056,0.0525,0.0525,0.0398,0.0317,0.0059,-0.0103,-0.0325,-0.0346,-0.0423,-0.0383,-0.036,-0.0381,-0.0372,-0.0363,-0.0457,-0.0458,-0.0458,-0.0458,0,0.0284,0.0314,0.0363,0.0441,0.0497,0.0559,0.0612,0.0628,0.0637,0.0624,0.0559,0.0427,0.0265,0.0064,-0.0111,-0.0266,-0.0375,-0.043,-0.043,-0.0393,-0.0366,-0.0384,-0.0374,-0.046,-0.046,-0.046,-0.046,0,0.0315,0.0351,0.0419,0.0483,0.0553,0.061,0.0637,0.0659,0.0675,0.0637,0.0606,0.0437,0.0331,0.0092,-0.0069,-0.0221,-0.0253,-0.0291,-0.0299,-0.0298,-0.0208,-0.0147,-0.0205,0,0,0,0,0,0.0347,0.0388,0.0455,0.0529,0.0592,0.0631,0.0688,0.0703,0.0703,0.0673,0.0646,0.0502,0.0255,0.0136,-0.0013,-0.0089,-0.0288,-0.0269,-0.0336,-0.0472,-0.047,-0.0388,0,0,0,0,0,0,0.0373,0.044,0.0463,0.0549,0.0595,0.0669,0.0703,0.0707,0.0689,0.0663,0.0534,0.0471,0.0228,0.0344,-0.0015,-0.0064,-0.0125,-0.0386,-0.0389,-0.0474,-0.0471,-0.0469,-0.0384,0,0,0,0,0]}]]